W4TTU-1 Weather Reports


Display with metric or nautical units.
time (UTC)temp
F
wind
direction
speed
MPH
gust
MPH
rain 1hr
in
rain 24hr
in
rain mn
in
humidity
%
barometer
mb
20260502123034 38 270 0.0 1.0 0.00 0.00 0.00 29 849.6
20260502121534 38 270 0.0 1.0 0.00 0.00 0.00 28 849.6
20260502114533 39 270 0.0 1.0 0.00 0.00 0.00 28 849.5
20260502113032 39 270 0.0 0.0 0.00 0.00 0.00 29 849.6
20260502111532 39 270 0.0 2.0 0.00 0.00 0.00 29 849.5
20260502110033 39 270 0.0 1.0 0.00 0.00 0.00 28 849.4
20260502104533 39 270 2.0 5.0 0.00 0.00 0.00 28 849.3
20260502103030 40 270 0.0 2.0 0.00 0.00 0.00 28 849.4
20260502070025 48 270 3.0 4.0 0.00 0.00 0.00 27 849.6
20260502064525 48 270 5.0 6.0 0.00 0.00 0.00 27 849.4
20260502063021 49 270 1.0 5.0 0.00 0.00 0.00 27 849.6
20260502061525 49 270 5.0 7.0 0.00 0.00 0.00 27 849.7
20260502060020 50 270 1.0 3.0 0.00 0.00 0.00 26 849.7
20260502054520 51 270 0.0 3.0 0.00 0.00 0.00 26 849.6
20260502053019 53 270 0.0 1.0 0.00 0.00 0.00 26 849.6
20260502051519 54 270 1.0 2.0 0.00 0.00 0.00 25 849.6
20260502050018 56 270 0.0 2.0 0.00 0.00 0.00 25 849.7
20260502044518 58 270 0.0 1.0 0.00 0.00 0.00 25 849.7
20260502043017 60 270 0.0 0.0 0.00 0.00 0.00 24 849.6
20260502041517 62 270 0.0 0.0 0.00 0.00 0.00 25 849.5
20260502033015 70 270 0.0 1.0 0.00 0.00 0.00 23 849.2
20260502031515 73 270 1.0 2.0 0.00 0.00 0.00 23 849.0
20260502030014 76 270 1.0 1.0 0.00 0.00 0.00 23 848.8
20260502024518 80 270 0.0 2.0 0.00 0.00 0.00 24 848.5
20260502023014 83 270 0.0 0.0 0.00 0.00 0.00 23 848.3
20260502021513 86 270 0.0 0.0 0.00 0.00 0.00 24 848.1
20260502020012 89 270 0.0 0.0 0.00 0.00 0.00 24 848.1
20260502014511 91 270 2.0 2.0 0.00 0.00 0.00 25 847.9
20260502013011 92 270 0.0 0.0 0.00 0.00 0.00 24 848.0
20260502011510 93 270 0.0 3.0 0.00 0.00 0.00 24 847.9
20260502010010 95 270 0.0 3.0 0.00 0.00 0.00 24 848.0
20260502004509 96 270 3.0 5.0 0.00 0.00 0.00 24 848.0
20260502003009 97 270 5.0 5.0 0.00 0.00 0.00 24 848.0
20260502001508 97 270 0.0 4.0 0.00 0.00 0.00 24 848.0
20260502000008 98 270 2.0 3.0 0.00 0.00 0.00 24 848.0
20260501234510 98 270 6.0 6.0 0.00 0.00 0.00 24 848.1
20260501231506 99 270 0.0 3.0 0.00 0.00 0.00 24 848.1
20260501230006 99 270 2.0 3.0 0.00 0.00 0.00 24 848.1
20260501224505 99 270 6.0 6.0 0.00 0.00 0.00 25 848.2
20260501223006 98 270 1.0 3.0 0.00 0.00 0.00 25 848.3
20260501221504 98 270 3.0 5.0 0.00 0.00 0.00 26 848.4
20260501220004 97 270 2.0 4.0 0.00 0.00 0.00 26 848.6
20260501214503 97 270 4.0 7.0 0.00 0.00 0.00 27 848.6
20260501213003 96 270 4.0 6.0 0.00 0.00 0.00 27 848.7
20260501211502 95 270 0.0 6.0 0.00 0.00 0.00 27 848.9
20260501210002 94 270 1.0 7.0 0.00 0.00 0.00 28 849.0
20260501204503 93 270 1.0 4.0 0.00 0.00 0.00 28 849.1
20260501203000 91 270 3.0 4.0 0.00 0.00 0.00 29 849.1
20260501201500 90 270 4.0 4.0 0.00 0.00 0.00 29 849.1
20260501200000 88 270 1.0 4.0 0.00 0.00 0.00 29 849.3
20260501194502 87 270 1.0 4.0 0.00 0.00 0.00 31 849.3
20260501192958 86 270 0.0 3.0 0.00 0.00 0.00 31 849.4
20260501191458 84 270 3.0 6.0 0.00 0.00 0.00 32 849.5
20260501185958 83 270 2.0 5.0 0.00 0.00 0.00 33 849.5
20260501184502 81 270 4.0 6.0 0.00 0.00 0.00 34 849.5
20260501182956 80 270 1.0 3.0 0.00 0.00 0.00 35 849.7
20260501181456 78 270 0.0 6.0 0.00 0.00 0.00 35 849.8
20260501175955 75 270 0.0 5.0 0.00 0.00 0.00 36 849.9
20260501174500 73 270 1.0 6.0 0.00 0.00 0.00 38 850.1
20260501172955 70 270 4.0 8.0 0.00 0.00 0.00 41 850.3
20260501171454 68 270 1.0 3.0 0.00 0.00 0.00 42 850.2
20260501165953 65 270 0.0 1.0 0.00 0.00 0.00 43 850.4
20260501164455 62 270 5.0 7.0 0.00 0.00 0.00 44 850.5
20260501162952 59 270 1.0 3.0 0.00 0.00 0.00 44 850.4
20260501161452 56 270 0.0 4.0 0.00 0.00 0.00 44 850.5
20260501155951 53 270 2.0 6.0 0.00 0.00 0.00 44 850.7
20260501154451 51 270 1.0 4.0 0.00 0.00 0.00 44 850.9
20260501152950 49 270 3.0 4.0 0.00 0.00 0.00 44 851.0
20260501151449 46 270 3.0 5.0 0.00 0.00 0.00 45 851.0